Location: 22
(39.7117°N, 89.5929°W)
Time: 03:29:50
(UTC-06:00)

Courier 1B Rocket - All Passes

Search period start: 28 January 2023 00:00
Search period end: 07 February 2023 00:00
Orbit: 920 x 1202 km, 28.3° (Epoch: 27 January)

Date Brightness Start Highest point End Pass type
(mag) Time Alt. Az. Time Alt. Az. Time Alt. Az.
28 Jan - 17:17:12 10° S 17:19:20 12° SSE 17:21:30 10° SE daylight
28 Jan - 19:06:41 10° SW 19:11:43 25° SSE 19:16:58 10° ESE visible
28 Jan - 20:58:49 10° WSW 21:04:25 30° S 21:10:19 10° ESE visible
28 Jan - 22:52:04 10° WSW 22:57:09 23° SSW 23:02:29 10° SSE night (unlit)
29 Jan - 18:06:26 10° SSW 18:10:57 21° SSE 18:15:34 10° ESE visible
29 Jan - 19:58:06 10° SW 20:03:32 30° S 20:09:13 10° ESE visible
29 Jan - 21:50:58 10° WSW 21:56:15 26° S 22:01:49 10° SE visible
29 Jan - 23:45:45 10° SW 23:48:53 13° SSW 23:52:07 10° S night (unlit)
30 Jan - 17:06:31 10° SSW 17:10:12 16° SSE 17:13:55 10° ESE daylight
30 Jan - 18:57:29 10° SW 19:02:42 28° S 19:08:06 10° ESE visible
30 Jan - 20:50:01 10° WSW 20:55:22 28° S 21:00:59 10° SE visible
30 Jan - 22:43:51 10° WSW 22:48:02 17° SSW 22:52:22 10° SSE night (unlit)
31 Jan - 16:07:20 10° S 16:09:29 12° SSE 16:11:39 10° SE daylight
31 Jan - 17:56:59 10° SW 18:01:53 24° SSE 18:06:54 10° ESE visible
31 Jan - 19:49:10 10° WSW 19:54:31 29° S 20:00:05 10° SE visible
31 Jan - 21:42:28 10° WSW 21:47:10 21° SSW 21:52:04 10° SSE visible
01 Feb - 16:56:39 10° SSW 17:01:07 21° SSE 17:05:36 10° ESE daylight
01 Feb - 18:48:25 10° SW 18:53:41 29° S 18:59:06 10° ESE visible
01 Feb - 20:41:20 10° WSW 20:46:20 24° SSW 20:51:31 10° SE visible
01 Feb - 22:36:27 10° SW 22:38:53 12° SSW 22:41:22 10° S night (unlit)
02 Feb - 15:56:37 10° SSW 16:00:22 16° SSE 16:04:06 10° ESE daylight
02 Feb - 17:47:44 10° SW 17:52:52 27° S 17:58:04 10° ESE visible
02 Feb - 19:40:22 10° WSW 19:45:30 27° S 19:50:48 10° SE visible
02 Feb - 21:34:21 10° SW 21:38:04 16° SSW 21:41:55 10° SSE visible
03 Feb - 14:57:10 10° S 14:59:38 12° SSE 15:02:04 10° SE daylight
03 Feb - 16:47:09 10° SW 16:52:05 24° S 16:57:00 10° ESE daylight
03 Feb - 18:39:28 10° WSW 18:44:41 28° S 18:50:00 10° SE visible
03 Feb - 20:32:54 10° WSW 20:37:17 20° SSW 20:41:47 10° SSE visible
04 Feb - 15:46:42 10° SSW 15:51:18 21° SSE 15:55:49 10° ESE daylight
04 Feb - 17:38:37 10° SW 17:43:52 28° S 17:49:08 10° ESE visible
04 Feb - 19:31:41 10° WSW 19:36:29 23° SSW 19:41:22 10° SE visible
04 Feb - 21:27:22 10° SW 21:28:57 11° SSW 21:30:32 10° S visible
05 Feb - 14:46:30 10° SSW 14:50:31 17° SSE 14:54:27 10° ESE daylight
05 Feb - 16:37:52 10° SW 16:43:04 27° S 16:48:13 10° ESE daylight
05 Feb - 18:30:38 10° WSW 18:35:41 26° S 18:40:47 10° SE visible
05 Feb - 20:24:50 10° SW 20:28:11 15° SSW 20:31:36 10° SSE visible
06 Feb - 13:46:47 10° S 13:49:45 13° SSE 13:52:39 10° SE daylight
06 Feb - 15:37:10 10° SW 15:42:16 25° S 15:47:15 10° ESE daylight
06 Feb - 17:29:38 10° WSW 17:34:53 28° S 17:40:06 10° SE daylight
06 Feb - 19:23:14 10° WSW 19:27:26 19° SSW 19:31:39 10° SSE visible
